Weather History for KAJO - April, 2014

Change the Weather History Date:

Sunday, April 20, 2014

  Actual Average (KONT) Record (KONT)
Temperature  
Mean Temperature 64 °F 63 °F  
Max Temperature 82 °F 75 °F 100 °F (2009)
Min Temperature 46 °F 51 °F 40 °F (2002)
Degree Days  
Heating Degree Days 2 4  
Month to date heating degree days 93  
Since 1 July heating degree days 1462  
Cooling Degree Days 0 2  
Month to date cooling degree days 22  
Year to date cooling degree days 40  
Growing Degree Days 14 (Base 50)    
Moisture  
Dew Point 52 °F    
Average Humidity 67    
Maximum Humidity 100    
Minimum Humidity 35    
Precipitation  
Precipitation 0.00 in 0.04 in 0.83 in (2007)
Month to date precipitation 0.64  
Year to date precipitation 9.66  
Snow  
Snow 0.00 in - - ()
Month to date snowfall  
Since 1 July snowfall  
Snow Depth -    
Sea Level Pressure  
Sea Level Pressure 30.02 in    
Wind  
Wind Speed 4 mph (West)    
Max Wind Speed 17 mph    
Max Gust Speed 24 mph    
Visibility 9 miles    
Events      
T = Trace of Precipitation, MM = Missing Value Source: NWS Daily Summary

Daily Weather History Graph

Daily Weather History Graph

Search for Another Location

Airport or City:

Trip Planner

Search our weather history database for the weather conditions in past years. The results will help you decide how hot, cold, wet, or windy it might be!

Date:

Astronomy

Apr. 20, 2014 Rise Set
Actual Time 6:13 AM PDT 7:25 PM PDT
Civil Twilight 5:47 AM PDT 7:51 PM PDT
Nautical Twilight 5:16 AM PDT 8:22 PM PDT
Astronomical Twilight 4:44 AM PDT 8:54 PM PDT
Moon 12:03 AM PDT (4/20) 10:44 AM PDT (4/20)
Length of Visible Light 14h 04m
Length of Day
13h 12m
Waning Gibbous, 67% of the Moon is Illuminated
Apr 20
Waning Gibbous
Apr 22
Last Quarter
Apr 28
New
May 6
First Quarter
May 14
Full

Hourly Weather History & Observations

Time (PDT) Temp. Heat Index Dew Point Humidity Pressure Visibility Wind Dir Wind Speed Gust Speed Precip Events Conditions
12:56 AM 57.9 °F - 52.9 °F 83% 30.04 in 10.0 mi WSW 3.5 mph - N/A   Clear
1:56 AM 52.9 °F - 50.0 °F 90% 30.04 in 10.0 mi Calm Calm - N/A   Clear
2:56 AM 54.9 °F - 50.9 °F 86% 30.03 in 10.0 mi Calm Calm - N/A   Clear
3:56 AM 55.9 °F - 52.0 °F 87% 30.03 in 10.0 mi West 3.5 mph - N/A   Clear
4:56 AM 48.9 °F - 46.9 °F 93% 30.03 in 4.0 mi Calm Calm - N/A   Clear
5:56 AM 47.8 °F - 45.0 °F 90% 30.03 in 9.0 mi Calm Calm - N/A   Clear
6:07 AM 46.4 °F - 46.4 °F 100% 30.05 in 1.8 mi Calm Calm - N/A   Clear
6:23 AM 48.2 °F - 46.4 °F 93% 30.05 in 3.0 mi Calm Calm - N/A   Clear
6:56 AM 48.9 °F - 45.9 °F 89% 30.05 in 8.0 mi Calm Calm - N/A   Clear
7:56 AM 57.9 °F - 52.0 °F 81% 30.05 in 10.0 mi Calm Calm - N/A   Clear
8:56 AM 65.8 °F - 52.9 °F 63% 30.04 in 10.0 mi Variable 3.5 mph - N/A   Clear
10:56 AM 72.9 °F - 52.9 °F 49% 30.05 in 10.0 mi West 6.9 mph - N/A   Clear
11:56 AM 77.0 °F - 54.0 °F 45% 30.04 in 5.0 mi West 9.2 mph - N/A   Haze
12:56 PM 79.9 °F - 52.9 °F 39% 30.01 in 10.0 mi West 9.2 mph - N/A   Clear
1:56 PM 81.9 °F 81.1 °F 54.0 °F 38% 29.99 in 10.0 mi WNW 16.1 mph - N/A   Clear
2:56 PM 81.9 °F 81.2 °F 54.9 °F 39% 29.98 in 10.0 mi West 15.0 mph 23.0 mph N/A   Clear
3:56 PM 81.9 °F - 52.0 °F 35% 29.96 in 10.0 mi West 17.3 mph 20.7 mph N/A   Clear
4:56 PM 79.9 °F - 52.9 °F 39% 29.97 in 10.0 mi West 13.8 mph 24.2 mph N/A   Clear
5:56 PM 75.9 °F - 54.0 °F 46% 29.98 in 10.0 mi West 11.5 mph - N/A   Clear
6:56 PM 73.9 °F - 54.9 °F 51% 29.99 in 10.0 mi West 11.5 mph - N/A   Clear
7:56 PM 70.9 °F - 54.9 °F 57% 30.00 in 10.0 mi West 9.2 mph - N/A   Clear
8:56 PM 68.9 °F - 52.9 °F 57% 30.01 in 10.0 mi Calm Calm - N/A   Clear
9:56 PM 63.9 °F - 52.9 °F 67% 30.04 in 10.0 mi Calm Calm - N/A   Clear
10:56 PM 63.0 °F - 54.0 °F 72% 30.04 in 10.0 mi Calm Calm - N/A   Clear
11:56 PM 55.9 °F - 50.9 °F 83% 30.05 in 10.0 mi Calm Calm - N/A   Clear